COSMOS 465

Satellite information

Favourite Embed

Satellite Type and Status

PAYLOADIN ORBIT

Key statistics

Satellite COSMOS 465 at a glance.

Uptime

19564

Days in orbit

Revolutions

≈ 13.7

Per day

Orbit

LEO

Low Earth Orbit

Inclination

74.0

Latest

Satellite identification and parameters

Extended collection of information and parameters for COSMOS 465.

Object identification

Identified? True

Debris? False

Object name: COSMOS 465

International designator: 1971-111A

Object number (NORAD): 5683

Object ID (CCSDS): 5683

Country: COMMONWEALTH OF INDEPENDENT STATES (CIS)

Current information (Y/N): Y

RCS size: LARGE

Orbital parameters

Period: 104.778 minutes

Inclination: 74.0264 deg

SMA: 7362.174 km

Apoapsis: 1004.282 km

Periapsis: 963.796 km

RAAN: 161.9786 deg

Eccentricy: 0.0027496

Argument of periapsis: 351.3882 deg

Mean anomaly: 68.8864 deg

Mean motion: 13.74338331 rev/day

Mean motion (dot): -0.00000006 rev/day2

B* drag term: 0.000017186 1/REarth

Two-line elements (TLE)

Creation date: July 8, 2025, 2:27 a.m.

Reference frame: TEME

Reference center: EARTH

Epoch: July 7, 2025, 10:59 p.m. UTC

TLE line 0: 0 COSMOS 465

TLE line 1: 1 05683U 71111A 25188.95823152 -.00000006 00000-0 17186-4 0 9996

TLE line 2: 2 05683 74.0264 161.9786 0027496 351.3882 68.8864 13.74338331686054

Live tracking on map

Real-time ground track for satellite COSMOS 465.

In-orbit conjunctions

A list of the most updated potential collisions computed for object COSMOS 465.

Target Orbit TCA Probability of collision Miss distance Type
FENGYUN 1C DEB SSO 2024-11-22 13:33:13 0.0002126257 313.0 (m) DEBRIS
FENGYUN 1C DEB SSO 2024-08-01 07:25:05 0.0001730723 274.0 (m) DEBRIS

Associated space launch

The first soviet navigation system called Tsiklon consisted of Zaliv satellites in low earth orbit.

COSMOS 465 was lifted into orbit during the mission ‘Kosmos-3M | Zaliv 9’, on board a Kosmos-3M space rocket.

The launch took place on Dec. 15, 1971, 4:31 a.m. from 132/2.

For more information about the launch, click the button.

Launch to space Kosmos-3M | Zaliv 9
Kosmos-3M | Zaliv 9

Agency: N/A

Status: Launch Successful

Launch date: Dec. 15, 1971, 4:31 a.m. UTC

Rocket: Kosmos-3M

Launch pad: 132/2

Location: Plesetsk Cosmodrome, Russian Federation

...

Latest news about this satellite

There are no fresh news available about this satellite. Check back as we update our databases every day.


Newsletter sign-up

Weekly statistics, charts and insights to help you stay on top of the space industry.